QIANFAN-40 (62241 NORAD) Tracking and Keplerian Element Data

This shows tracking and keplerian element data for the satellite.

Feedback or suggestion? Click here.




ElementValue
Catalog62241
NameQIANFAN-40
Epoch Orbit5701
Epoch Day35.1532011
Epoch Year2025
RAAN73.1093
Inclination88.9888
Eccentricity0.0017061
Argument of Perigee28.5329
Mean Anonmoly331.6794
Mean Motion14.25785518
Decay Rate5.07E-06
L11 62241U 24232E 25035.15320110 .00000507 00000+0 20728-3 0 9999
L22 62241 88.9888 73.1093 0017061 28.5329 331.6794 14.25785518 57015



Live tracking and technical data element details for QIANFAN-40 (NORAD 62241). QIANFAN-40 can be tracked NOW for your location showing map with azimuth and elevation plus other details from your city location.







IsCatalogInMostPopularTable: catalog: 62241, numindb: 17
Update: records affected: 1



GetName: 62241 QIANFAN-40

Hit Count: updated at: Sun, 18 May 2025 22:22:38 GMT